User: anonymous   Login
Location: Unspecified
(0.0000°N, 0.0000°E)
Time: 08:10:42
(UTC+00:00)
Language:

OPTUS D3 - Orbit

View from above orbital plane
View from above orbital plane
View from above satellite
View from above satellite

Ground track
Ground track

The orbit data is extracted from the following two-line orbital elements,

1 35756U 09044B   16337.62086230 -.00000138 +00000-0 +00000-0 0  9993
2 35756 000.0395 029.9058 0002945 238.6746 182.8455 01.00271571026649
Epoch (UTC): 02 December 2016 14:54:02
Eccentricity: 0.0002945
inclination: 0.0395°
perigee height: 35774 km
apogee height: 35798 km
right ascension of ascending node: 29.9058°
argument of perigee: 238.6746°
revolutions per day: 1.00271571
mean anomaly at epoch: 182.8455°
orbit number at epoch: 2664

The dashed part of the orbit path shows where the satellite is in the earth's shadow,  

DLR